Theta_e
313 317 317 316 315 315 317 318 319 320 323 322 322 320 320 321 321 323 325 324 324 325 323 321 321 321 317 317 318 319 320 318 321 319 319 322 329 330 332 334 332 332 333
313 316 315 314 314 314 316 318 319 321 324 322 323 323 321 322 322 322 323 324 325 325 324 321 321 320 318 318 318 318 316 317 319 318 321 317 321 325 329 330 331 331 331
311 314 314 313 313 313 316 318 320 322 324 323 322 321 320 320 320 321 320 322 326 325 324 322 319 320 318 318 318 318 318 317 319 323 317 316 315 319 325 326 328 329 329
312 315 313 312 313 314 316 321 321 323 324 324 321 317 316 316 317 320 319 321 324 325 325 325 323 321 320 317 318 320 319 318 319 321 323 321 322 317 316 324 325 327 328
312 313 314 314 316 314 318 321 321 322 324 322 321 318 317 318 319 319 319 321 321 324 327 325 324 322 320 318 320 320 320 319 321 320 317 318 319 322 318 316 319 324 326
311 314 316 316 315 315 318 320 320 321 323 323 320 319 317 317 317 317 319 320 320 321 323 325 323 322 321 320 320 320 321 320 321 320 322 319 317 320 319 318 318 319 322
313 314 314 314 313 314 317 319 318 318 320 322 321 320 319 318 317 318 320 320 319 322 321 323 323 322 324 322 321 321 321 321 320 319 319 319 322 321 323 321 317 316 321
312 314 315 314 313 314 316 320 317 318 320 322 321 321 320 320 320 320 320 319 320 321 321 323 324 325 325 324 322 321 321 321 320 320 319 322 321 324 324 320 318 316 318
311 313 313 312 310 314 315 317 318 316 320 322 322 321 320 319 318 318 320 319 321 325 322 323 324 325 325 324 322 321 320 320 319 318 318 320 320 319 320 321 322 319 314
311 313 314 311 311 315 314 316 318 318 319 319 322 322 322 323 320 321 319 321 321 323 322 322 323 324 324 323 322 322 323 324 323 320 319 318 317 319 320 320 322 322 319
311 313 312 312 311 313 312 315 316 317 318 319 320 321 322 323 322 323 324 321 321 323 323 323 324 323 323 324 324 323 323 322 321 320 322 320 318 319 320 321 323 323 323
311 312 311 311 311 311 313 314 315 316 317 317 321 320 322 322 322 323 321 322 321 323 323 324 324 323 323 324 324 323 323 321 320 320 321 320 320 318 320 322 322 323 323
310 311 310 312 312 311 313 314 315 315 317 317 318 320 320 322 321 321 322 324 325 322 324 324 324 325 324 325 324 323 321 321 320 321 320 320 319 318 321 321 321 323 324
311 311 310 311 312 313 314 315 315 316 317 316 316 319 319 321 321 323 321 322 323 323 324 326 327 327 326 327 326 325 323 321 320 321 322 322 322 321 321 321 320 320 321
310 312 309 310 311 312 314 316 315 314 316 315 314 319 320 321 321 324 323 323 323 324 327 327 328 328 327 327 325 324 323 322 322 322 324 324 322 321 321 322 320 320 319
311 312 312 310 310 313 315 316 315 313 317 316 314 319 319 320 321 322 323 322 318 321 324 326 327 326 326 309 313 321 324 323 323 322 323 323 321 318 315 314 315 319 318
312 312 312 311 312 312 316 315 315 312 317 316 316 319 319 320 322 320 322 317 315 315 315 316 318 321 320 305 308 312 325 323 323 323 323 324 325 321 321 310 309 309 310
313 314 314 312 312 313 315 316 314 311 316 316 317 317 317 319 320 319 318 317 314 314 313 312 312 314 317 303 305 311 325 323 323 324 324 324 322 320 319 313 315 314 316
314 315 316 314 313 313 314 316 312 310 315 316 316 317 316 318 319 319 317 316 314 313 312 311 311 308 306 302 302 315 322 321 321 323 324 323 320 310 305 315 312 309 306
316 316 316 314 313 314 315 315 311 310 312 314 316 317 316 317 317 318 317 317 315 314 314 312 311 307 304 299 303 314 321 316 316 316 318 309 316 301 302 313 311 308 306
315 316 316 314 314 315 316 314 312 310 312 314 315 315 314 315 315 318 317 318 316 316 313 311 309 310 306 300 300 307 316 316 312 312 313 311 298 298 301 305 311 308 305
315 316 316 314 314 316 316 315 312 313 313 314 313 313 313 317 317 318 317 317 317 314 314 311 308 308 305 300 297 302 306 307 311 310 310 306 295 296 297 302 296 296 301
316 318 317 314 314 316 316 314 315 314 313 313 311 311 313 315 318 319 317 316 316 315 313 314 311 311 307 300 296 296 298 301 309 310 304 295 293 293 294 294 295 298 302
316 318 317 314 313 315 316 316 316 317 314 311 311 310 312 313 318 320 320 318 316 315 314 314 313 312 308 302 296 297 302 300 304 301 296 295 294 294 295 294 296 301 304
318 318 317 315 314 315 315 316 318 318 315 312 312 311 312 315 317 319 320 320 319 318 315 314 314 312 309 306 298 297 302 302 301 295 293 291 291 293 293 295 296 303 304
318 318 318 317 316 316 315 317 319 318 315 313 313 311 311 314 317 318 312 297 305 303 304 303 309 312 308 299 295 294 296 296 294 297 295 294 293 295 299 302 302 302 300
Wind_Speed
7 11 12 11 10 8 8 8 8 5 3 2 1 1 2 3 2 2 4 4 5 6 3 3 4 4 5 5 5 3 3 1 3 4 4 3 5 6 5 5 6 6 6
12 12 10 7 8 9 8 8 7 6 3 2 2 2 2 3 3 2 4 4 4 4 3 3 5 5 4 6 5 5 3 1 2 4 3 3 2 2 3 5 5 6 6
17 13 13 10 9 9 8 8 8 6 4 2 0 2 1 1 2 2 3 3 2 3 3 4 4 5 5 5 5 5 6 4 1 5 4 3 3 4 3 6 5 7 6
14 14 12 9 9 8 7 8 7 6 4 4 2 1 2 1 2 2 2 3 2 3 3 4 5 5 4 5 5 5 4 5 5 3 3 1 5 3 4 4 5 6 7
17 16 14 13 7 8 8 7 7 6 4 3 2 0 1 1 1 1 3 4 3 3 2 3 4 5 4 5 6 6 6 3 6 3 3 3 3 2 3 4 4 5 4
10 10 10 9 8 7 7 7 7 4 4 4 3 3 3 4 3 2 3 3 2 2 1 3 4 5 5 6 5 5 7 5 5 4 7 5 4 4 4 4 4 5 2
14 15 13 9 8 9 8 7 8 5 4 6 3 4 4 5 3 2 2 3 2 1 2 2 4 3 4 6 6 6 5 6 5 6 4 2 4 4 6 5 3 3 3
12 14 13 10 11 9 9 8 8 6 6 6 3 3 4 3 1 2 2 2 1 1 0 3 4 5 5 6 6 4 4 5 5 7 4 5 3 5 7 6 8 5 3
13 14 10 10 9 9 9 9 8 5 7 6 4 3 3 4 2 3 2 1 1 1 3 4 5 5 6 7 7 4 5 6 4 5 5 5 4 5 4 4 7 6 6
11 11 11 10 8 9 7 7 8 8 7 6 5 3 3 3 2 3 4 4 3 3 3 4 5 6 6 7 7 6 7 10 5 4 7 6 4 6 5 4 3 4 5
14 13 11 9 9 8 8 7 8 8 6 6 5 4 2 2 3 3 4 3 2 3 3 4 6 5 8 7 8 8 9 10 9 6 8 7 6 6 5 4 4 5 4
14 13 12 10 9 9 7 8 7 7 7 6 6 4 4 4 4 4 5 2 3 4 4 5 6 6 6 6 11 10 8 10 9 8 9 7 6 7 6 5 6 6 4
12 11 10 11 11 9 8 8 7 7 7 6 7 5 5 5 4 4 5 3 3 3 5 5 5 7 7 7 8 10 9 10 10 8 9 9 8 7 7 7 7 5 5
16 13 11 11 12 11 10 8 7 8 7 7 7 6 5 6 4 4 5 4 3 4 4 4 4 5 8 8 10 9 9 9 9 9 8 8 9 10 9 8 7 6 5
15 16 14 12 11 10 10 8 7 8 7 7 7 7 5 5 5 5 5 5 3 3 5 5 5 6 7 7 10 8 8 8 9 7 8 7 9 12 9 5 4 4 3
17 17 16 15 14 14 13 11 8 10 10 8 7 6 6 5 5 4 5 5 6 6 5 5 5 5 4 12 13 9 9 7 8 9 8 9 12 8 8 4 4 6 6
19 18 19 17 15 15 15 12 9 9 12 9 7 7 6 5 4 5 6 6 6 6 6 5 6 6 5 10 12 11 8 8 8 8 10 9 6 6 4 3 5 10 10
19 18 16 15 15 13 14 11 10 11 12 11 9 7 7 6 6 6 7 6 5 6 6 6 5 5 4 7 9 9 6 8 8 9 10 9 6 5 5 2 4 6 5
20 18 18 18 14 15 14 14 12 12 12 12 10 9 7 7 6 7 7 6 6 5 4 5 6 6 3 7 8 7 6 6 8 8 7 6 6 7 7 6 6 6 4
18 16 16 14 15 14 15 16 14 14 13 13 12 10 9 9 7 7 6 4 5 6 5 5 5 7 6 7 9 8 6 5 4 4 5 8 7 8 10 7 7 7 4
19 15 16 18 18 15 16 16 16 16 14 13 12 10 9 10 9 8 5 6 5 6 5 6 4 6 6 5 8 10 5 6 5 5 4 3 9 8 8 8 6 6 7
15 17 16 15 15 17 17 16 17 16 13 13 13 12 10 9 7 10 6 7 7 7 6 5 3 2 4 6 6 9 8 7 6 5 4 5 8 8 10 7 9 10 8
18 17 17 15 14 17 18 18 15 15 14 12 13 12 11 10 9 10 8 5 6 6 5 5 4 4 3 3 4 7 11 9 5 4 6 11 9 10 8 9 10 9 5
17 16 15 15 15 16 17 17 15 16 15 13 12 11 11 8 9 8 8 7 6 5 6 5 6 4 4 5 4 3 2 4 3 7 6 6 6 5 6 5 5 4 5
15 16 16 16 18 17 15 13 15 16 14 12 11 12 11 12 10 9 10 10 8 9 7 6 8 6 5 6 9 8 5 5 5 8 4 3 3 3 3 3 4 4 5
15 15 15 16 16 17 15 14 16 16 15 12 10 10 10 9 9 9 4 8 3 12 12 13 9 5 10 14 16 14 10 12 16 4 4 4 5 5 5 5 4 3 6
Wind_Direction
145 147 144 141 125 127 135 138 131 143 116 68 12 316 264 256 271 263 282 272 235 240 227 203 191 169 160 173 171 121 121 152 167 106 88 52 78 109 155 137 138 137 128
143 147 141 132 141 151 148 136 137 143 124 134 220 213 244 249 240 291 297 300 226 216 233 197 179 170 151 176 153 136 124 100 172 129 106 124 77 113 88 116 129 111 119
153 156 157 152 141 148 155 146 150 139 132 183 194 344 349 312 4 313 304 324 276 228 242 189 164 168 159 168 150 155 143 120 352 140 137 121 172 123 144 124 115 126 122
152 150 148 153 156 163 145 141 144 133 161 166 152 151 223 262 251 276 295 327 353 236 178 179 170 177 167 162 158 154 136 123 145 42 1 191 102 140 156 121 108 118 122
150 153 157 157 160 147 151 143 138 136 168 173 168 155 319 294 335 341 350 2 325 301 265 184 170 155 171 159 145 141 133 119 152 152 145 76 93 119 97 116 128 86 104
133 133 148 147 146 144 136 140 136 165 157 137 103 80 86 82 60 358 351 335 341 311 185 164 152 158 150 151 153 140 143 148 128 150 148 152 147 151 140 117 127 114 90
146 152 154 155 148 152 147 144 148 174 145 121 104 104 111 101 89 354 341 349 6 292 20 142 149 165 150 142 135 135 141 145 142 151 154 109 132 123 116 129 110 123 113
156 156 161 158 159 158 154 150 162 173 141 137 142 124 120 113 75 40 317 6 91 47 117 166 162 155 143 134 130 132 133 129 128 134 124 121 110 136 144 143 145 117 77
156 159 157 163 158 158 166 157 167 156 155 160 148 157 127 104 94 56 72 63 16 20 87 113 148 144 143 136 130 115 114 108 111 110 107 115 110 101 95 121 153 143 144
154 155 164 167 161 163 158 164 163 162 175 162 157 176 174 131 117 83 77 59 42 35 82 101 113 123 124 118 113 109 114 117 100 101 110 103 104 105 108 121 118 99 125
163 163 168 169 161 152 151 158 154 153 167 167 167 172 167 89 127 110 100 85 61 68 88 79 97 107 121 114 105 109 118 125 119 105 121 108 112 116 115 103 96 100 101
163 162 165 158 154 159 155 158 156 153 166 157 148 158 130 116 114 117 111 93 64 50 72 82 88 87 92 115 123 119 110 117 122 116 122 116 108 99 93 92 96 91 74
156 159 156 164 163 164 165 162 159 166 165 151 130 147 133 126 112 137 115 116 110 82 64 86 95 102 105 104 104 112 115 118 130 126 130 125 118 105 109 95 100 93 95
166 165 166 172 166 169 171 170 166 160 165 150 136 149 158 135 156 143 133 129 110 101 74 72 77 111 105 113 121 115 112 110 128 131 132 127 120 118 116 102 104 98 90
168 173 173 175 169 169 173 177 165 153 161 150 143 165 172 139 140 155 156 130 141 132 133 95 63 54 93 110 118 120 113 114 107 104 111 101 102 98 98 111 99 102 100
178 179 179 177 173 175 176 180 169 156 157 158 159 162 161 151 150 173 138 109 95 112 105 98 113 88 96 125 120 121 129 126 115 119 107 120 116 118 114 84 199 182 167
178 181 184 182 179 176 173 178 172 146 157 162 159 160 158 157 149 150 129 119 112 108 101 108 119 105 113 128 128 130 138 137 135 134 137 142 153 146 150 244 277 211 184
181 187 183 182 184 170 172 165 153 155 158 162 166 160 154 156 145 128 121 121 122 123 117 110 114 118 126 135 135 125 111 132 132 144 163 163 166 156 166 162 67 96 109
186 185 183 181 175 168 165 159 159 156 159 165 170 169 160 158 151 135 139 137 124 122 132 133 128 124 124 190 155 127 116 125 134 145 159 145 160 191 178 137 123 96 65
181 179 178 171 171 173 160 158 164 162 167 170 175 171 163 159 157 150 147 139 139 139 137 136 145 129 107 125 162 145 135 124 112 109 166 179 177 169 177 159 156 131 173
180 172 165 176 175 163 160 165 166 177 172 170 170 169 164 165 161 154 149 139 140 131 139 144 158 137 138 118 116 134 130 142 142 151 170 178 158 173 180 160 159 161 151
167 167 171 173 170 167 164 165 177 174 166 162 170 171 170 172 158 158 155 150 138 145 155 149 158 179 161 153 124 141 139 145 143 166 167 144 154 134 125 127 136 124 104
170 172 174 165 168 171 174 172 176 167 169 160 170 172 171 170 164 160 160 149 156 149 165 165 175 183 176 171 168 143 152 167 147 162 155 133 139 117 90 117 131 117 105
166 170 163 164 169 176 180 182 162 168 169 165 169 169 167 162 166 169 168 167 170 162 159 171 185 182 169 171 184 179 141 145 100 103 97 125 128 112 129 107 83 109 138
165 165 169 171 177 175 176 168 167 167 171 164 167 171 173 174 170 178 177 181 190 182 172 180 176 172 189 208 180 171 178 175 155 110 98 101 119 154 147 106 112 121 124
164 168 173 172 172 174 173 168 171 170 168 165 167 171 169 175 176 171 152 33 213 180 174 171 168 204 198 167 178 182 171 149 149 116 148 179 183 175 167 152 137 128 128